Volver al catálogo

STARLINK-5002

ActivoComunicacionesVLEO
NORAD 53922·PAYLOAD·🇺🇸 United States

Lanzado Sep 24, 2022 desde Cape Canaveral Space Force Station

Loading…

Próximos Pases (próximas 24 horas)

TLE

ActualizadoSource: CelesTrak SupGP

Época: Sep 14, 2026, 21:44 UTC

1 53922C 22119AN  26257.90604167 -.00028865  00000+0 -18100-2 0  2570
2 53922  53.1592 183.8144 0001655  90.1576 270.3779 15.08852526    10

Sigue STARLINK-5002 en tiempo real con AllMySat

Download on the App Store